This demonstration page uses our WeatherBlox Daily Observations layout. Learn more.

Left ArrowRight Arrow

Hourly Observations for January 28, 2022

Temp ( °F °C ) Dew Point ( °F °C ) Humidity (%) Winds ( mph kmh ) Pressure ( in mb ) Visibility ( mi km ) Precip ( " mm )
12:15 am 00:15 Cloudy 28 -2 27 -3 93 93 WSW 7 11 30.23 1024 10 16 N/A
12:35 am 00:35 Cloudy 30 -1 27 -3 86 86 W 6 9 30.23 1024 10 16 N/A
12:55 am 00:55 Cloudy 28 -2 27 -3 93 93 W 5 7 30.23 1024 10 16 N/A
1:15 am 01:15 Cloudy 28 -2 27 -3 93 93 W 6 9 30.22 1023 10 16 N/A
1:35 am 01:35 Cloudy 28 -2 27 -3 93 93 W 5 7 30.22 1023 10 16 N/A
1:55 am 01:55 Cloudy 28 -2 27 -3 93 93 W 5 7 30.21 1023 10 16 N/A
2:15 am 02:15 Cloudy 28 -2 27 -3 93 93 W 3 6 30.21 1023 10 16 N/A
2:35 am 02:35 Cloudy 27 -3 27 -3 100 100 WNW 3 6 30.23 1024 10 16 N/A
2:55 am 02:55 Cloudy 27 -3 27 -3 100 100 WNW 5 7 30.23 1024 7 11 N/A
3:15 am 03:15 Cloudy 27 -3 27 -3 100 100 NW 5 7 30.22 1023 7 11 N/A
3:35 am 03:35 Cloudy 27 -3 27 -3 100 100 NW 5 7 30.22 1023 10 16 N/A
3:55 am 03:55 Cloudy 27 -3 25 -4 93 93 NNW 5 7 30.22 1023 10 16 N/A
4:15 am 04:15 Cloudy 25 -4 25 -4 100 100 NNW 3 6 30.21 1023 10 16 N/A
4:35 am 04:35 Cloudy 23 -5 23 -5 100 100 N 5 7 30.20 1023 7 11 N/A
4:55 am 04:55 Cloudy 25 -4 25 -4 100 100 N 5 7 30.20 1023 7 11 N/A
5:15 am 05:15 Cloudy 25 -4 25 -4 100 100 N 5 7 30.19 1022 10 16 N/A
5:35 am 05:35 Cloudy 25 -4 25 -4 100 100 NNE 3 6 30.19 1022 10 16 N/A
5:55 am 05:55 Cloudy 25 -4 25 -4 100 100 N 5 7 30.20 1023 10 16 N/A
6:15 am 06:15 Cloudy 25 -4 25 -4 100 100 NNW 3 6 30.20 1023 10 16 N/A
6:35 am 06:35 Cloudy 25 -4 25 -4 100 100 NNW 5 7 30.20 1023 10 16 N/A
6:55 am 06:55 Cloudy 25 -4 25 -4 100 100 NNW 3 6 30.21 1023 10 16 N/A
7:15 am 07:15 Cloudy 25 -4 25 -4 100 100 N 3 6 30.21 1023 10 16 N/A
7:35 am 07:35 Cloudy 25 -4 25 -4 100 100 N 3 6 30.22 1023 10 16 N/A
7:55 am 07:55 Cloudy 25 -4 25 -4 100 100 N 3 6 30.22 1023 7 11 N/A
8:15 am 08:15 Cloudy 25 -4 25 -4 100 100 N 6 9 30.22 1023 7 11 N/A
8:35 am 08:35 Cloudy 25 -4 25 -4 100 100 N 7 11 30.22 1023 7 11 N/A
8:55 am 08:55 Cloudy 25 -4 25 -4 100 100 N 7 11 30.22 1023 5 8 N/A
9:15 am 09:15 Cloudy 25 -4 25 -4 100 100 NNE 6 9 30.22 1023 3 5 N/A
9:35 am 09:35 Cloudy 25 -4 25 -4 100 100 NNE 8 13 30.23 1024 3 4 N/A
9:55 am 09:55 Cloudy 25 -4 23 -5 93 93 NNE 9 15 30.23 1024 3 5 N/A
10:15 am 10:15 Cloudy 23 -5 23 -5 100 100 N 12 19 30.24 1024 2 2 N/A
10:35 am 10:35 Cloudy 23 -5 23 -5 100 100 N 12 19 30.24 1024 2 2 N/A
10:55 am 10:55 Cloudy 21 -6 21 -6 100 100 N 13 20 30.26 1025 2 3 N/A
11:15 am 11:15 Cloudy 21 -6 21 -6 100 100 NNE 16 26 30.26 1025 0 0 N/A
11:35 am 11:35 Cloudy 21 -6 19 -7 93 93 N 16 26 30.27 1025 1 1 N/A
11:55 am 11:55 Cloudy 21 -6 19 -7 93 93 N 13 20 30.27 1025 1 2 N/A
12:15 pm 12:15 Cloudy 19 -7 19 -7 100 100 N 16 26 30.27 1025 1 1 N/A
12:35 pm 12:35 Cloudy 19 -7 19 -7 100 100 N 15 24 30.26 1025 1 1 N/A
12:55 pm 12:55 Cloudy 19 -7 18 -8 93 93 N 13 20 30.26 1025 1 1 N/A
1:15 pm 13:15 Cloudy 19 -7 18 -8 93 93 N 16 26 30.26 1025 2 2 N/A
1:35 pm 13:35 Cloudy 19 -7 16 -9 86 86 N 16 26 30.26 1025 3 4 N/A
1:55 pm 13:55 Cloudy 19 -7 16 -9 86 86 N 13 20 30.26 1025 3 4 N/A
2:15 pm 14:15 Cloudy 19 -7 16 -9 86 86 N 12 19 30.25 1024 2 3 N/A
2:35 pm 14:35 Cloudy 19 -7 16 -9 86 86 N 14 22 30.25 1024 4 6 N/A
2:55 pm 14:55 Cloudy 19 -7 16 -9 86 86 N 13 20 30.25 1024 7 11 N/A
3:15 pm 15:15 Cloudy 19 -7 16 -9 86 86 N 14 22 30.25 1024 10 16 N/A
3:35 pm 15:35 Cloudy 19 -7 12 -11 73 73 N 15 24 30.26 1025 10 16 N/A
3:55 pm 15:55 Cloudy 18 -8 10 -12 73 73 N 18 30 N/A 10 16 N/A
4:15 pm 16:15 Cloudy 18 -8 9 -13 68 68 N 16 26 30.28 1025 10 16 N/A
4:35 pm 16:35 Cloudy 18 -8 9 -13 68 68 N 14 22 30.29 1026 10 16 N/A
4:55 pm 16:55 Cloudy 16 -9 9 -13 73 73 N 15 24 30.30 1026 10 16 N/A
5:15 pm 17:15 Cloudy 16 -9 7 -14 67 67 N 15 24 30.31 1026 10 16 N/A
5:35 pm 17:35 Mostly Cloudy 14 -10 7 -14 73 73 NNW 12 19 30.31 1027 10 16 N/A
5:55 pm 17:55 Sunny 14 -10 5 -15 67 67 NNW 14 22 30.32 1027 10 16 N/A
6:15 pm 18:15 Clear 12 -11 5 -15 73 73 NNW 12 19 30.34 1027 10 16 N/A
6:35 pm 18:35 Clear 12 -11 5 -15 73 73 NNW 10 17 30.34 1027 10 16 N/A
6:55 pm 18:55 Clear 10 -12 3 -16 72 72 NNW 9 15 30.35 1028 10 16 N/A
7:15 pm 19:15 Clear 10 -12 3 -16 72 72 NNW 9 15 30.36 1028 10 16 N/A
7:35 pm 19:35 Clear 10 -12 3 -16 72 72 NNW 9 15 30.36 1028 10 16 N/A
7:55 pm 19:55 Clear 10 -12 3 -16 72 72 NW 8 13 30.37 1028 10 16 N/A
8:15 pm 20:15 Clear 10 -12 3 -16 72 72 NW 8 13 30.37 1028 10 16 N/A
8:35 pm 20:35 Clear 10 -12 3 -16 72 72 NW 7 11 30.37 1028 10 16 N/A
8:55 pm 20:55 Clear 9 -13 3 -16 78 78 NW 8 13 30.38 1029 10 16 N/A
9:15 pm 21:15 Clear 9 -13 1 -17 72 72 NNW 6 9 30.39 1029 10 16 N/A
9:35 pm 21:35 Clear 7 -14 1 -17 78 78 NNW 6 9 30.39 1029 10 16 N/A
9:55 pm 21:55 Clear 5 -15 0 -18 78 78 NNW 6 9 30.39 1029 10 16 N/A
10:15 pm 22:15 Clear 5 -15 0 -18 78 78 NW 7 11 30.40 1030 10 16 N/A
10:35 pm 22:35 Clear 7 -14 1 -17 78 78 NNW 6 9 30.40 1029 10 16 N/A
10:55 pm 22:55 Clear 5 -15 0 -18 78 78 NNW 6 9 30.40 1030 10 16 N/A
11:15 pm 23:15 Clear 5 -15 0 -18 78 78 NW 5 7 30.40 1030 10 16 N/A
11:35 pm 23:35 Clear 1 -17 -2 -19 85 85 Calm 30.41 1030 10 16 N/A
11:55 pm 23:55 Clear 0 -18 -2 -19 92 92 Calm 30.41 1030 10 16 N/A

Powered by AerisWeather